TimeCST,TemperatureF,Dew PointF,Humidity,Sea Level PressureIn,VisibilityMPH,Wind Direction,Wind SpeedMPH,Gust SpeedMPH,PrecipitationIn,Events,Conditions,WindDirDegrees,DateUTC
12:52 AM,19.9,12.9,74,30.15,10.0,West,9.2,-,N/A,,Overcast,280,2014-01-22 06:52:00
1:52 AM,21.9,14.0,72,30.13,10.0,West,6.9,-,N/A,,Overcast,280,2014-01-22 07:52:00
2:44 AM,23.0,16.0,74,30.05,9.0,NW,13.8,-,0.00,Snow,Light Snow,310,2014-01-22 08:44:00
2:52 AM,23.0,16.0,74,30.13,6.0,NW,12.7,21.9,0.00,Snow,Light Snow,310,2014-01-22 08:52:00
3:52 AM,23.0,16.0,74,30.15,6.0,NNW,16.1,26.5,0.00,Snow,Light Snow,340,2014-01-22 09:52:00
4:49 AM,17.6,10.4,73,30.13,1.8,North,31.1,42.6,0.00,Snow,Light Snow,360,2014-01-22 10:49:00
4:52 AM,16.0,9.0,74,30.22,1.8,North,28.8,42.6,0.00,Snow,Light Snow,360,2014-01-22 10:52:00
4:58 AM,16.0,9.0,74,30.14,3.0,North,23.0,39.1,0.00,Snow,Light Snow,360,2014-01-22 10:58:00
5:05 AM,14.0,8.1,77,30.15,1.8,North,29.9,39.1,0.00,Snow,Light Snow,10,2014-01-22 11:05:00
5:17 AM,10.9,3.9,73,30.17,2.5,NNE,31.1,38.0,0.00,Snow,Light Snow,20,2014-01-22 11:17:00
5:42 AM,8.1,1.0,73,30.22,6.0,North,16.1,29.9,0.00,Snow,Light Snow,10,2014-01-22 11:42:00
5:52 AM,8.1,1.0,73,30.33,9.0,North,16.1,24.2,0.00,,Overcast,360,2014-01-22 11:52:00
6:08 AM,7.0,1.0,77,30.24,6.0,North,13.8,-,N/A,,Haze,10,2014-01-22 12:08:00
6:52 AM,3.0,-2.9,76,30.41,5.0,North,16.1,25.3,0.00,,Haze,350,2014-01-22 12:52:00
6:59 AM,3.0,-2.9,76,30.30,4.0,North,17.3,24.2,N/A,,Haze,360,2014-01-22 12:59:00
7:08 AM,1.9,-2.9,80,30.31,1.8,North,16.1,24.2,0.00,Snow,Light Snow,360,2014-01-22 13:08:00
7:18 AM,1.9,-4.0,76,30.32,0.8,North,16.1,26.5,0.00,Snow,Light Snow,360,2014-01-22 13:18:00
7:27 AM,1.0,-4.0,79,30.34,1.0,North,17.3,24.2,0.00,Snow,Light Snow,350,2014-01-22 13:27:00
7:41 AM,-0.0,-7.1,72,30.35,3.0,North,15.0,24.2,0.00,Snow,Light Snow,360,2014-01-22 13:41:00
7:49 AM,-0.4,-7.6,72,30.36,8.0,North,18.4,23.0,0.00,,Overcast,350,2014-01-22 13:49:00
7:52 AM,-0.9,-7.1,75,30.49,9.0,North,13.8,-,0.00,,Overcast,350,2014-01-22 13:52:00
8:07 AM,-2.0,-9.0,72,30.38,10.0,North,17.3,-,N/A,,Overcast,350,2014-01-22 14:07:00
8:52 AM,-2.9,-9.9,72,30.55,5.0,NNW,13.8,-,N/A,,Haze,340,2014-01-22 14:52:00
9:52 AM,-4.0,-13.0,65,30.59,10.0,North,11.5,21.9,N/A,,Scattered Clouds,360,2014-01-22 15:52:00
10:52 AM,-4.0,-13.0,65,30.61,10.0,North,13.8,23.0,N/A,,Partly Cloudy,350,2014-01-22 16:52:00
11:52 AM,-2.9,-13.0,62,30.62,10.0,North,16.1,19.6,N/A,,Clear,360,2014-01-22 17:52:00
12:52 PM,-2.0,-11.9,63,30.63,10.0,North,15.0,-,N/A,,Clear,350,2014-01-22 18:52:00
1:52 PM,-2.0,-11.9,63,30.63,10.0,North,10.4,-,N/A,,Clear,360,2014-01-22 19:52:00
2:52 PM,-0.0,-11.0,60,30.64,10.0,NNW,10.4,-,N/A,,Clear,340,2014-01-22 20:52:00
3:52 PM,1.0,-11.0,57,30.67,10.0,NNW,12.7,-,N/A,,Clear,340,2014-01-22 21:52:00
4:52 PM,-0.0,-9.9,63,30.70,10.0,NNW,10.4,-,N/A,,Clear,330,2014-01-22 22:52:00
5:52 PM,-0.9,-11.0,62,30.73,10.0,NNW,11.5,-,N/A,,Clear,330,2014-01-22 23:52:00
6:52 PM,-2.0,-11.0,66,30.77,10.0,NNW,10.4,-,N/A,,Clear,330,2014-01-23 00:52:00
7:52 PM,-2.9,-11.9,65,30.80,10.0,NW,11.5,-,N/A,,Clear,320,2014-01-23 01:52:00
8:52 PM,-4.0,-11.9,69,30.82,10.0,NW,10.4,-,N/A,,Clear,310,2014-01-23 02:52:00
9:52 PM,-6.0,-11.9,75,30.82,10.0,West,5.8,-,N/A,,Clear,280,2014-01-23 03:52:00
10:52 PM,-6.0,-13.0,72,30.84,10.0,West,5.8,-,N/A,,Clear,280,2014-01-23 04:52:00
11:52 PM,-7.1,-13.0,75,30.85,10.0,Calm,Calm,-,N/A,,Clear,0,2014-01-23 05:52:00